EW4321 Beach Haven NJ US current weather conditions

sailwx.info

Wind from 274 at 9 knots gusting 13

Air temperature 25.0° C
Dewpoint 21.5° C

Last reported at 2020-Jul-12 12:01 UTC.
Time now 2020-Jul-12 12:26 UTC

Location: N 39°33' W 074°15'.
View on Google Maps.

See reports from other nearby stations

  
Tides and Currents Weather Stations Pressure Air Temp Water Temp Dewpoint Dewpoint Depression Visibility Wind Speed Wind Dir Waves Ship Positions
date/time (UTC)wind fromknots sea level pressurealtimeterstation pressurevisibilityair tempwater tempwave heightnotes
2020-Jul-12 12:06 269 8 gusting 13 25.6
2020-Jul-12 12:01 274 9 gusting 13 25.0
2020-Jul-12 11:56 271 11 gusting 13 25.0
2020-Jul-12 11:51 274 10 gusting 15 25.0
2020-Jul-12 11:46 273 10 gusting 15 25.0
2020-Jul-12 11:41 277 10 gusting 13 25.0
2020-Jul-12 11:36 271 10 gusting 13 25.0
2020-Jul-12 11:31 272 10 gusting 12 24.4
2020-Jul-12 11:26 272 9 gusting 11 24.4
2020-Jul-12 11:21 267 8 gusting 12 24.4
2020-Jul-12 11:16 272 9 gusting 12 24.4
2020-Jul-12 11:11 275 9 gusting 12 23.9
2020-Jul-12 11:06 270 8 gusting 12 23.9
2020-Jul-12 11:01 269 7 gusting 11 23.9
2020-Jul-12 10:56 271 9 gusting 11 23.9
2020-Jul-12 10:51 271 7 gusting 11 23.9
2020-Jul-12 10:46 270 8 gusting 12 23.9
2020-Jul-12 10:41 270 9 gusting 12 23.9
2020-Jul-12 10:36 271 10 gusting 12 23.9
2020-Jul-12 10:31 269 8 gusting 12 23.9
2020-Jul-12 10:26 270 7 gusting 12 23.9
2020-Jul-12 10:21 268 8 gusting 12 23.9
2020-Jul-12 10:16 272 8 gusting 12 23.9
2020-Jul-12 10:11 274 9 gusting 12 23.9
2020-Jul-12 10:06 270 10 gusting 13 23.9
2020-Jul-12 10:01 274 10 gusting 13 23.9
2020-Jul-12 09:56 271 9 gusting 13 23.9
2020-Jul-12 09:51 275 11 gusting 14 23.9
2020-Jul-12 09:46 271 10 gusting 14 23.9
2020-Jul-12 09:41 277 9 gusting 13 23.9
2020-Jul-12 09:36 276 10 gusting 13 23.9
2020-Jul-12 09:31 281 11 gusting 13 23.9
2020-Jul-12 09:26 275 11 gusting 13 23.9
2020-Jul-12 09:21 275 10 gusting 14 23.9
2020-Jul-12 09:16 276 12 gusting 14 23.9
2020-Jul-12 09:11 271 9 gusting 11 23.9
2020-Jul-12 09:06 268 8 gusting 11 23.9
2020-Jul-12 09:01 258 8 gusting 12 23.9
2020-Jul-12 08:56 265 8 gusting 13 23.9
2020-Jul-12 08:51 271 10 gusting 13 23.9
2020-Jul-12 08:46 269 10 gusting 13 23.9
2020-Jul-12 08:41 267 8 gusting 13 24.4
2020-Jul-12 08:36 258 9 gusting 12 24.4
2020-Jul-12 08:31 255 7 gusting 11 24.4
2020-Jul-12 08:26 256 7 gusting 13 24.4
2020-Jul-12 08:21 254 8 gusting 13 24.4
2020-Jul-12 08:16 255 9 gusting 12 24.4
2020-Jul-12 08:11 258 9 gusting 12 24.4
2020-Jul-12 08:06 265 8 gusting 12 24.4
2020-Jul-12 08:01 267 9 gusting 12 24.4
2020-Jul-12 07:56 271 8 gusting 12 24.4
2020-Jul-12 07:51 268 9 gusting 12 24.4
2020-Jul-12 07:46 270 9 gusting 13 24.4
2020-Jul-12 07:41 270 10 gusting 13 24.4
2020-Jul-12 07:36 270 11 gusting 13 24.4
2020-Jul-12 07:31 269 11 gusting 13 24.4
2020-Jul-12 07:26 263 8 gusting 11 23.9
2020-Jul-12 07:21 254 7 gusting 10 23.9
2020-Jul-12 07:16 248 7 gusting 11 23.9
2020-Jul-12 07:11 255 7 gusting 11 24.4
2020-Jul-12 07:06 254 7 gusting 10 24.4
2020-Jul-12 07:01 255 7 gusting 10 23.9
2020-Jul-12 06:56 249 6 gusting 9 24.4
2020-Jul-12 06:51 251 6 gusting 9 24.4
2020-Jul-12 06:46 255 6 gusting 9 24.4
2020-Jul-12 06:41 251 6 gusting 10 24.4
2020-Jul-12 06:36 260 7 gusting 10 24.4
2020-Jul-12 06:31 256 7 gusting 9 24.4
2020-Jul-12 06:26 253 6 gusting 7 24.4
2020-Jul-12 06:21 244 5 gusting 7 24.4
2020-Jul-12 06:16 252 6 gusting 11 24.4
2020-Jul-12 06:11 256 7 gusting 11 24.4
2020-Jul-12 06:06 258 8 gusting 12 24.4
2020-Jul-12 06:01 256 9 gusting 12 25.0
2020-Jul-12 05:56 255 7 gusting 10 25.0
2020-Jul-12 05:51 258 7 gusting 9 25.0
2020-Jul-12 05:46 262 6 gusting 11 25.0
2020-Jul-12 05:41 265 6 gusting 12 25.0
2020-Jul-12 05:36 267 8 gusting 13 25.0
2020-Jul-12 05:31 276 11 gusting 13 25.6
2020-Jul-12 05:26 277 11 gusting 14 25.6
2020-Jul-12 05:21 278 11 gusting 15 25.6
2020-Jul-12 05:16 278 12 gusting 15 25.6
2020-Jul-12 05:11 271 11 gusting 15 25.6
2020-Jul-12 05:06 271 9 gusting 14 25.6
2020-Jul-12 04:56 272 11 gusting 13 25.6
2020-Jul-12 04:51 271 10 gusting 12 25.6
2020-Jul-12 04:46 271 9 gusting 12 25.6
2020-Jul-12 04:41 272 9 gusting 12 25.6
2020-Jul-12 04:36 270 10 gusting 12 25.6
2020-Jul-12 04:31 269 8 gusting 13 25.6
2020-Jul-12 04:26 270 11 gusting 13 25.6
2020-Jul-12 04:21 267 9 gusting 12 25.6
2020-Jul-12 04:16 268 8 gusting 12 25.6
2020-Jul-12 04:11 259 8 gusting 11 25.6
2020-Jul-12 04:06 263 8 gusting 12 25.6
2020-Jul-12 04:01 257 9 gusting 12 26.1
2020-Jul-12 03:56 258 9 gusting 13 26.1
2020-Jul-12 03:51 257 9 gusting 13 26.1
2020-Jul-12 03:46 251 7 gusting 12 26.1
2020-Jul-12 03:41 252 9 gusting 13 26.1
2020-Jul-12 03:36 253 9 gusting 13 26.1
2020-Jul-12 03:31 255 9 gusting 12 26.1
2020-Jul-12 03:26 251 7 gusting 11 26.1
2020-Jul-12 03:21 244 6 gusting 10 26.1
2020-Jul-12 03:16 237 6 gusting 9 26.1
2020-Jul-12 03:11 236 6 gusting 10 26.1
2020-Jul-12 03:06 240 6 gusting 10 26.1
2020-Jul-12 03:01 237 6 gusting 10 26.1
2020-Jul-12 02:56 239 6 gusting 11 26.1
2020-Jul-12 02:51 240 7 gusting 11 26.1
2020-Jul-12 02:46 241 6 gusting 11 26.7
2020-Jul-12 02:41 238 6 gusting 11 26.7
2020-Jul-12 02:36 240 7 gusting 11 26.7
2020-Jul-12 02:31 245 7 gusting 12 26.7
2020-Jul-12 02:26 245 7 gusting 12 26.7
2020-Jul-12 02:21 241 7 gusting 12 26.1
2020-Jul-12 02:16 240 6 gusting 9 26.1
2020-Jul-12 02:11 253 3 gusting 9 25.6
2020-Jul-12 02:06 229 6 gusting 9 25.6
2020-Jul-12 02:01 221 6 gusting 9 25.6
2020-Jul-12 01:56 222 6 gusting 9 25.6
2020-Jul-12 01:51 224 6 gusting 10 25.6
2020-Jul-12 01:46 224 6 gusting 10 25.6
2020-Jul-12 01:41 220 6 gusting 11 25.0
2020-Jul-12 01:36 212 7 gusting 11 25.6
2020-Jul-12 01:31 206 5 gusting 9 25.0
2020-Jul-12 01:26 212 6 gusting 9 25.0
2020-Jul-12 01:21 211 7 gusting 11 25.0
2020-Jul-12 01:16 209 7 gusting 11 25.0
2020-Jul-12 01:11 203 6 gusting 11 25.0
2020-Jul-12 01:06 203 6 gusting 10 25.0
2020-Jul-12 01:01 206 6 gusting 11 25.0
2020-Jul-12 00:56 203 6 gusting 11 25.0
2020-Jul-12 00:51 198 7 gusting 13 25.0
2020-Jul-12 00:46 195 9 gusting 13 25.0
2020-Jul-12 00:41 201 9 gusting 13 25.0
2020-Jul-12 00:36 197 9 gusting 13 25.0
2020-Jul-12 00:31 195 11 gusting 13 25.0
2020-Jul-12 00:26 202 8 gusting 13 25.0
2020-Jul-12 00:21 207 6 gusting 13 25.6
2020-Jul-12 00:16 194 9 gusting 13 25.6
2020-Jul-12 00:11 194 8 gusting 14 25.6
2020-Jul-12 00:06 200 9 gusting 14 25.6
2020-Jul-12 00:01 199 10 gusting 15 25.6
2020-Jul-11 23:56 195 10 gusting 15 25.6
2020-Jul-11 23:51 201 10 gusting 15 25.6
2020-Jul-11 23:46 194 10 gusting 15 25.6
2020-Jul-11 23:41 197 10 gusting 15 25.6
2020-Jul-11 23:36 196 9 gusting 16 25.6
2020-Jul-11 23:31 202 9 gusting 16 25.6
2020-Jul-11 23:26 203 11 gusting 15 25.6
2020-Jul-11 23:21 202 10 gusting 15 25.6
2020-Jul-11 23:16 195 9 gusting 15 25.6
2020-Jul-11 23:11 196 10 gusting 14 25.6
2020-Jul-11 23:06 194 8 gusting 14 26.1
2020-Jul-11 23:01 197 8 gusting 16 26.1
2020-Jul-11 22:56 190 12 gusting 16 26.1
2020-Jul-11 22:51 193 11 gusting 15 26.7
2020-Jul-11 22:46 191 11 gusting 14 26.7
2020-Jul-11 22:41 196 9 gusting 16 26.7
2020-Jul-11 22:36 191 10 gusting 16 26.7
2020-Jul-11 22:31 189 10 gusting 15 26.7
2020-Jul-11 22:26 185 10 gusting 14 26.7
2020-Jul-11 22:21 204 8 gusting 14 26.7
2020-Jul-11 22:16 195 9 gusting 16 26.7
2020-Jul-11 22:11 192 11 gusting 16 26.7
2020-Jul-11 22:06 186 10 gusting 14 26.7
2020-Jul-11 22:01 184 9 gusting 16 26.7
2020-Jul-11 21:56 187 10 gusting 16 26.7
2020-Jul-11 21:51 186 10 gusting 15 26.7
2020-Jul-11 21:46 188 8 gusting 16 26.7
2020-Jul-11 21:41 187 10 gusting 19 26.7
2020-Jul-11 21:36 181 11 gusting 19 26.7
2020-Jul-11 21:31 186 11 gusting 17 26.7
2020-Jul-11 21:26 180 12 gusting 17 26.7
2020-Jul-11 21:21 180 9 gusting 14 26.7
2020-Jul-11 21:16 181 12 gusting 17 26.7
2020-Jul-11 21:11 181 11 gusting 17 26.7
2020-Jul-11 21:06 182 11 gusting 17 26.7
2020-Jul-11 21:01 182 11 gusting 17 27.2
2020-Jul-11 20:56 166 9 gusting 16 27.2
2020-Jul-11 20:51 174 9 gusting 16 27.2
2020-Jul-11 20:46 180 10 gusting 15 26.7
2020-Jul-11 20:41 176 10 gusting 15 27.2
2020-Jul-11 20:36 215 9 gusting 16 27.2
2020-Jul-11 20:31 179 10 gusting 16 27.2
2020-Jul-11 20:26 183 11 gusting 16 27.2
2020-Jul-11 20:21 179 12 gusting 16 27.2
2020-Jul-11 20:16 176 9 gusting 15 27.2
2020-Jul-11 20:11 183 11 gusting 16 27.2
2020-Jul-11 20:06 186 11 gusting 16 27.2
2020-Jul-11 20:01 180 10 gusting 15 27.2
2020-Jul-11 19:56 178 10 gusting 15 26.7
2020-Jul-11 19:51 178 11 gusting 15 26.7
2020-Jul-11 19:46 181 8 gusting 15 26.1
2020-Jul-11 19:41 181 9 gusting 14 26.1
2020-Jul-11 19:36 181 10 gusting 14 26.7
2020-Jul-11 19:31 182 9 gusting 14 26.7
2020-Jul-11 19:26 184 10 gusting 14 26.7
2020-Jul-11 19:21 185 10 gusting 13 27.2
2020-Jul-11 19:16 175 8 gusting 13 27.2
2020-Jul-11 19:11 188 8 gusting 13 27.2
2020-Jul-11 19:06 186 9 gusting 13 27.2
2020-Jul-11 19:01 180 8 gusting 14 27.2
2020-Jul-11 18:56 172 8 gusting 14 27.2
2020-Jul-11 18:51 179 10 gusting 13 27.2
2020-Jul-11 18:46 174 9 gusting 13 26.7
2020-Jul-11 18:41 180 8 gusting 13 26.7
2020-Jul-11 18:36 183 9 gusting 13 26.7
2020-Jul-11 18:31 199 7 gusting 11 26.7
2020-Jul-11 18:26 195 6 gusting 11 26.1
2020-Jul-11 18:21 201 8 gusting 15 26.1
2020-Jul-11 18:16 203 9 gusting 15 26.1
2020-Jul-11 18:11 202 9 gusting 14 25.6
2020-Jul-11 18:06 198 6 gusting 13 25.6
2020-Jul-11 18:01 193 9 gusting 13 26.1
2020-Jul-11 17:56 192 8 gusting 13 26.1
2020-Jul-11 17:51 201 8 gusting 14 26.1
2020-Jul-11 17:46 203 7 gusting 14 26.1
2020-Jul-11 17:41 206 8 gusting 14 26.1
2020-Jul-11 17:36 202 8 gusting 14 26.1
2020-Jul-11 17:31 190 9 gusting 14 25.6
2020-Jul-11 17:26 201 9 gusting 14 25.6
2020-Jul-11 17:21 206 9 gusting 12 26.1
2020-Jul-11 17:16 201 7 gusting 13 26.1
2020-Jul-11 17:11 186 9 gusting 15 26.1
2020-Jul-11 17:06 181 8 gusting 15 26.1
2020-Jul-11 17:01 189 8 gusting 13 26.1
2020-Jul-11 16:56 192 9 gusting 15 26.1
2020-Jul-11 16:51 193 9 gusting 15 26.1
2020-Jul-11 16:46 191 10 gusting 15 26.1
2020-Jul-11 16:41 188 9 gusting 15 26.1
2020-Jul-11 16:36 181 10 gusting 15 26.7
2020-Jul-11 16:31 181 10 gusting 14 26.7
2020-Jul-11 16:26 188 9 gusting 15 26.7
2020-Jul-11 16:21 185 9 gusting 17 27.2
2020-Jul-11 16:16 188 10 gusting 17 26.7
2020-Jul-11 16:11 184 10 gusting 17 27.2
2020-Jul-11 16:06 178 12 gusting 17 27.2
2020-Jul-11 16:01 175 10 gusting 18 27.2
2020-Jul-11 15:56 178 11 gusting 18 27.2
2020-Jul-11 15:51 180 11 gusting 18 27.2
2020-Jul-11 15:46 176 10 gusting 17 27.2
2020-Jul-11 15:41 180 10 gusting 15 27.2
2020-Jul-11 15:36 180 7 gusting 16 27.2
2020-Jul-11 15:31 179 9 gusting 16 27.2
2020-Jul-11 15:26 180 11 gusting 14 27.2
2020-Jul-11 15:21 179 10 gusting 16 27.2
2020-Jul-11 15:16 179 11 gusting 16 27.2
2020-Jul-11 15:11 179 11 gusting 16 27.2
2020-Jul-11 15:06 184 10 gusting 13 27.2
2020-Jul-11 15:01 179 8 gusting 16 26.7
2020-Jul-11 14:56 192 8 gusting 17 26.7
2020-Jul-11 14:51 185 12 gusting 17 26.7
2020-Jul-11 14:46 187 10 gusting 16 26.7
2020-Jul-11 14:41 184 10 gusting 16 26.7
2020-Jul-11 14:36 193 9 gusting 16 26.7
2020-Jul-11 14:26 187 9 gusting 15 26.1
2020-Jul-11 14:21 188 8 gusting 15 26.1
2020-Jul-11 14:16 189 11 gusting 15 26.1
2020-Jul-11 14:11 184 11 gusting 15 26.1
2020-Jul-11 14:06 187 9 gusting 14 26.1
2020-Jul-11 14:01 184 9 gusting 15 26.1
2020-Jul-11 13:56 181 8 gusting 16 26.1
2020-Jul-11 13:51 185 10 gusting 16 26.1
2020-Jul-11 13:46 181 9 gusting 16 26.1
2020-Jul-11 13:41 187 9 gusting 16 26.1
2020-Jul-11 13:36 179 11 gusting 16 26.1
2020-Jul-11 13:31 183 10 gusting 13 26.1
2020-Jul-11 13:26 185 8 gusting 14 26.1
2020-Jul-11 13:21 190 10 gusting 14 26.1
2020-Jul-11 13:16 189 9 gusting 17 26.1
2020-Jul-11 13:11 178 11 gusting 17 26.1
2020-Jul-11 13:06 187 8 gusting 14 26.1
2020-Jul-11 13:01 188 8 gusting 14 26.1
2020-Jul-11 12:56 195 8 gusting 13 26.1
2020-Jul-11 12:51 188 9 gusting 14 25.6
2020-Jul-11 12:46 193 10 gusting 14 25.6
2020-Jul-11 12:41 195 9 gusting 14 25.6
2020-Jul-11 12:36 196 8 gusting 14 25.0
2020-Jul-11 12:31 196 10 gusting 13 25.0
2020-Jul-11 12:26 191 9 gusting 13 25.0
2020-Jul-11 12:21 195 7 gusting 13 25.0
2020-Jul-11 12:16 214 7 gusting 12 25.0
2020-Jul-11 12:11 205 7 gusting 13 25.0
2020-Jul-11 12:06 212 7 gusting 13 25.0
2020-Jul-11 12:01 200 10 gusting 15 24.4
2020-Jul-11 11:56 204 6 gusting 15 24.4
2020-Jul-11 11:51 210 11 gusting 14 24.4
2020-Jul-11 11:46 213 10 gusting 14 24.4
2020-Jul-11 11:41 196 7 gusting 15 24.4
2020-Jul-11 11:36 200 9 gusting 15 24.4
2020-Jul-11 11:31 193 7 gusting 13 24.4
2020-Jul-11 11:26 193 10 gusting 14 24.4
2020-Jul-11 11:21 203 8 gusting 14 24.4
2020-Jul-11 11:16 197 8 gusting 16 24.4
2020-Jul-11 11:11 195 9 gusting 16 24.4
2020-Jul-11 11:06 203 10 gusting 18 24.4
2020-Jul-11 11:01 198 10 gusting 18 24.4
2020-Jul-11 10:56 194 7 gusting 15 24.4
2020-Jul-11 10:51 200 10 gusting 14 24.4
2020-Jul-11 10:46 195 10 gusting 15 24.4
2020-Jul-11 10:41 195 11 gusting 15 24.4
2020-Jul-11 10:36 193 11 gusting 15 23.9
2020-Jul-11 10:31 194 10 gusting 18 23.9
2020-Jul-11 10:26 198 11 gusting 18 23.9
2020-Jul-11 10:21 194 10 gusting 16 23.9
2020-Jul-11 10:16 189 10 gusting 19 23.9
2020-Jul-11 10:11 196 12 gusting 19 23.9
2020-Jul-11 10:06 185 9 gusting 17 23.9
2020-Jul-11 10:01 194 11 gusting 16 23.9
2020-Jul-11 09:56 192 10 gusting 17 23.9
2020-Jul-11 09:51 189 9 gusting 18 23.9
2020-Jul-11 09:46 196 10 gusting 18 23.9
2020-Jul-11 09:41 199 11 gusting 16 23.9
2020-Jul-11 09:36 201 9 gusting 14 23.9
2020-Jul-11 09:31 201 11 gusting 16 23.9
2020-Jul-11 09:26 198 11 gusting 16 23.9
2020-Jul-11 09:21 194 10 gusting 16 23.9
2020-Jul-11 09:16 196 9 gusting 17 23.9
2020-Jul-11 09:11 199 10 gusting 17 23.9
2020-Jul-11 09:06 200 9 gusting 14 23.9
2020-Jul-11 09:01 194 10 gusting 14 23.9
2020-Jul-11 08:56 202 9 gusting 16 23.9
2020-Jul-11 08:51 198 10 gusting 17 23.9
2020-Jul-11 08:46 200 10 gusting 17 23.9
2020-Jul-11 08:41 202 11 gusting 16 23.9
2020-Jul-11 08:36 198 9 gusting 16 23.9
2020-Jul-11 08:33 198 9 gusting 14 23.9
2020-Jul-11 08:26 199 10 gusting 14 23.9
2020-Jul-11 08:21 198 8 gusting 16 23.9
2020-Jul-11 08:16 190 10 gusting 16 23.9
2020-Jul-11 08:11 200 10 gusting 15 23.9
2020-Jul-11 08:06 201 9 gusting 15 23.9
2020-Jul-11 08:01 191 8 gusting 15 23.9
2020-Jul-11 07:56 194 10 gusting 15 23.9
2020-Jul-11 07:51 191 11 gusting 16 23.9
2020-Jul-11 07:46 195 9 gusting 16 23.9
2020-Jul-11 07:41 195 11 gusting 15 23.9
2020-Jul-11 07:36 192 8 gusting 16 23.9
2020-Jul-11 07:31 195 10 gusting 16 23.9
2020-Jul-11 07:26 192 10 gusting 16 23.9
2020-Jul-11 07:21 188 11 gusting 16 23.9
2020-Jul-11 07:16 191 13 gusting 18 23.9
2020-Jul-11 07:11 190 12 gusting 18 23.9
2020-Jul-11 07:06 194 11 gusting 18 23.9
2020-Jul-11 07:01 197 12 gusting 18 23.9
2020-Jul-11 06:56 196 11 gusting 17 23.9
2020-Jul-11 06:51 198 11 gusting 17 23.9
2020-Jul-11 06:46 199 13 gusting 17 23.9
2020-Jul-11 06:41 196 11 gusting 18 23.9
2020-Jul-11 06:36 195 9 gusting 18 23.9
2020-Jul-11 06:31 198 10 gusting 18 23.9
2020-Jul-11 06:26 188 11 gusting 18 23.9
2020-Jul-11 06:21 188 9 gusting 17 24.4
2020-Jul-11 06:16 197 11 gusting 18 24.4
2020-Jul-11 06:11 197 11 gusting 18 24.4
2020-Jul-11 06:06 202 9 gusting 16 24.4
2020-Jul-11 06:01 198 11 gusting 18 24.4
2020-Jul-11 05:56 207 11 gusting 18 24.4
2020-Jul-11 05:51 196 8 gusting 17 24.4
2020-Jul-11 05:46 210 9 gusting 17 24.4
2020-Jul-11 05:41 206 9 gusting 16 24.4
2020-Jul-11 05:36 209 10 gusting 15 24.4
2020-Jul-11 05:31 205 7 gusting 14 24.4
2020-Jul-11 05:26 202 9 gusting 14 24.4
2020-Jul-11 05:21 198 10 gusting 14 24.4
2020-Jul-11 05:16 208 9 gusting 15 24.4
2020-Jul-11 05:11 206 9 gusting 15 24.4
2020-Jul-11 05:06 207 8 gusting 14 24.4
2020-Jul-11 05:01 200 9 gusting 14 24.4
2020-Jul-11 04:56 202 8 gusting 17 24.4
2020-Jul-11 04:51 209 9 gusting 17 24.4
2020-Jul-11 04:46 207 11 gusting 17 24.4
2020-Jul-11 04:41 193 10 gusting 17 25.0
2020-Jul-11 04:36 203 10 gusting 17 25.0
2020-Jul-11 04:31 211 10 gusting 13 25.0
2020-Jul-11 04:26 213 6 gusting 15 25.0
2020-Jul-11 04:21 209 9 gusting 15 25.0
2020-Jul-11 04:16 210 9 gusting 13 25.0
2020-Jul-11 04:11 211 7 gusting 15 25.0
2020-Jul-11 04:06 221 9 gusting 15 25.0
2020-Jul-11 04:01 225 11 gusting 15 24.4
2020-Jul-11 03:56 209 10 gusting 15 24.4
2020-Jul-11 03:51 212 8 gusting 12 24.4
2020-Jul-11 03:46 209 7 gusting 12 23.9
2020-Jul-11 03:41 222 7 gusting 13 23.9
2020-Jul-11 03:36 217 7 gusting 13 23.9
2020-Jul-11 03:31 219 9 gusting 14 23.9
2020-Jul-11 03:26 220 8 gusting 16 23.9
2020-Jul-11 03:21 228 9 gusting 16 23.9
2020-Jul-11 03:16 236 11 gusting 17 23.9
2020-Jul-11 03:11 236 11 gusting 17 23.9
2020-Jul-11 03:06 239 11 gusting 19 23.9
2020-Jul-11 03:01 251 12 gusting 19 23.9
2020-Jul-11 02:56 252 14 gusting 20 23.9
2020-Jul-11 02:51 256 16 gusting 23 23.9
2020-Jul-11 02:46 254 16 gusting 23 24.4
2020-Jul-11 02:41 253 14 gusting 22 24.4
2020-Jul-11 02:36 245 13 gusting 22 24.4
2020-Jul-11 02:31 248 15 gusting 24 24.4
2020-Jul-11 02:26 246 16 gusting 24 24.4
2020-Jul-11 02:21 249 15 gusting 25 24.4
2020-Jul-11 02:16 236 19 gusting 25 24.4
2020-Jul-11 02:11 238 17 gusting 27 25.0
2020-Jul-11 02:06 225 18 gusting 27 24.4
2020-Jul-11 02:01 224 15 gusting 23 24.4
2020-Jul-11 01:56 236 13 gusting 26 24.4
2020-Jul-11 01:51 233 17 gusting 26 24.4
2020-Jul-11 01:46 234 16 gusting 23 24.4
2020-Jul-11 01:41 238 18 gusting 26 24.4
2020-Jul-11 01:36 239 17 gusting 26 24.4
2020-Jul-11 01:31 233 19 gusting 26 24.4
2020-Jul-11 01:26 228 18 gusting 24 24.4
2020-Jul-11 01:21 226 16 gusting 24 24.4
2020-Jul-11 01:16 225 15 gusting 24 24.4
2020-Jul-11 01:11 227 17 gusting 24 24.4
2020-Jul-11 01:06 229 18 gusting 26 24.4
2020-Jul-11 01:01 226 15 gusting 26 24.4
2020-Jul-11 00:56 235 16 gusting 25 23.9
2020-Jul-11 00:51 226 16 gusting 24 23.9
2020-Jul-11 00:46 230 14 gusting 24 23.9
2020-Jul-11 00:41 240 18 gusting 25 23.9
2020-Jul-11 00:36 250 17 gusting 25 23.9
2020-Jul-11 00:31 237 17 gusting 25 23.9
2020-Jul-11 00:26 238 16 gusting 24 23.9
2020-Jul-11 00:21 237 17 gusting 24 23.9
2020-Jul-11 00:16 233 14 gusting 26 23.9
2020-Jul-11 00:11 239 16 gusting 26 23.9
2020-Jul-11 00:06 231 17 gusting 24 23.9
2020-Jul-11 00:01 233 15 gusting 21 23.9
2020-Jul-10 23:56 233 14 gusting 24 23.9
2020-Jul-10 23:51 235 16 gusting 24 23.9
2020-Jul-10 23:46 232 15 gusting 23 23.9
2020-Jul-10 23:41 232 16 gusting 23 23.9
2020-Jul-10 23:36 238 17 gusting 23 24.4
2020-Jul-10 23:31 238 12 gusting 19 24.4
2020-Jul-10 23:26 231 13 gusting 19 24.4
2020-Jul-10 23:21 228 11 gusting 17 24.4
2020-Jul-10 23:16 237 13 gusting 17 25.0
2020-Jul-10 23:11 239 11 gusting 16 24.4
2020-Jul-10 23:06 236 12 gusting 17 24.4
2020-Jul-10 23:01 226 12 gusting 19 24.4
2020-Jul-10 22:56 230 11 gusting 19 24.4
2020-Jul-10 22:51 235 13 gusting 18 24.4
2020-Jul-10 22:46 231 12 gusting 17 24.4
2020-Jul-10 22:41 239 10 gusting 15 24.4
2020-Jul-10 22:36 246 9 gusting 14 24.4
2020-Jul-10 22:31 239 9 gusting 14 24.4
2020-Jul-10 22:26 245 10 gusting 14 24.4
2020-Jul-10 22:21 228 9 gusting 14 24.4
2020-Jul-10 22:16 227 10 gusting 14 24.4
2020-Jul-10 22:11 224 10 gusting 16 24.4
2020-Jul-10 22:06 226 11 gusting 16 24.4
2020-Jul-10 22:01 228 8 gusting 14 24.4
2020-Jul-10 21:56 228 9 gusting 15 24.4
2020-Jul-10 21:51 219 8 gusting 15 24.4
2020-Jul-10 21:46 228 9 gusting 13 24.4
2020-Jul-10 21:41 231 9 gusting 13 23.9
2020-Jul-10 21:36 222 7 gusting 14 24.4
2020-Jul-10 21:31 220 10 gusting 14 24.4
2020-Jul-10 21:26 222 10 gusting 15 23.9
2020-Jul-10 21:21 230 9 gusting 15 23.9
2020-Jul-10 21:16 228 10 gusting 15 23.9
2020-Jul-10 21:11 227 10 gusting 14 23.9
2020-Jul-10 21:06 221 9 gusting 16 23.9
2020-Jul-10 21:01 219 11 gusting 16 23.9
2020-Jul-10 20:56 207 9 gusting 14 23.9
2020-Jul-10 20:51 199 8 gusting 19 23.9
2020-Jul-10 20:46 177 11 gusting 19 23.3
2020-Jul-10 20:41 142 13 gusting 22 23.3
2020-Jul-10 20:36 133 18 gusting 22 23.3
2020-Jul-10 20:31 134 19 gusting 22 23.3
2020-Jul-10 20:26 132 17 gusting 22 23.3
2020-Jul-10 20:21 127 15 gusting 22 23.3
2020-Jul-10 20:16 120 15 gusting 22 23.3
2020-Jul-10 20:11 122 16 gusting 22 23.3
2020-Jul-10 20:06 124 16 gusting 21 23.3
2020-Jul-10 20:01 124 15 gusting 24 23.3
2020-Jul-10 19:56 116 17 gusting 24 23.3
2020-Jul-10 19:51 119 16 gusting 25 23.3
2020-Jul-10 19:46 122 17 gusting 25 23.3
2020-Jul-10 19:41 119 17 gusting 25 23.3
2020-Jul-10 19:36 116 19 gusting 26 23.3
2020-Jul-10 19:31 115 19 gusting 29 23.3
2020-Jul-10 19:26 113 21 gusting 30 23.3
2020-Jul-10 19:21 112 23 gusting 32 23.3
2020-Jul-10 19:16 109 25 gusting 34 23.3
2020-Jul-10 19:11 112 23 gusting 34 23.3
2020-Jul-10 19:06 109 24 gusting 33 23.3
2020-Jul-10 19:01 111 26 gusting 34 23.3
2020-Jul-10 18:56 110 23 gusting 34 23.3
2020-Jul-10 18:51 105 23 gusting 33 23.3
2020-Jul-10 18:46 109 26 gusting 34 23.3
2020-Jul-10 18:41 113 26 gusting 34 23.3
2020-Jul-10 18:36 110 24 gusting 33 23.3
2020-Jul-10 18:31 113 22 gusting 33 23.3
2020-Jul-10 18:26 113 25 gusting 35 23.3
2020-Jul-10 18:21 114 26 gusting 39 23.3
2020-Jul-10 18:16 110 27 gusting 39 23.3
2020-Jul-10 18:11 107 27 gusting 36 23.3
2020-Jul-10 18:06 111 26 gusting 34 23.9
2020-Jul-10 18:01 112 26 gusting 36 23.9
2020-Jul-10 17:56 109 25 gusting 36 23.9
2020-Jul-10 17:51 111 25 gusting 34 24.4
2020-Jul-10 17:46 111 26 gusting 34 24.4
2020-Jul-10 17:41 112 24 gusting 36 24.4
2020-Jul-10 17:36 113 25 gusting 36 24.4
2020-Jul-10 17:31 110 24 gusting 33 24.4
2020-Jul-10 17:26 112 25 gusting 33 25.0
2020-Jul-10 17:21 110 27 gusting 33 25.0
2020-Jul-10 17:16 110 26 gusting 39 25.0
2020-Jul-10 17:11 111 26 gusting 39 25.0
2020-Jul-10 17:06 110 25 gusting 34 25.0
2020-Jul-10 17:01 108 26 gusting 34 25.0
2020-Jul-10 16:56 113 26 gusting 34 25.6
2020-Jul-10 16:51 112 26 gusting 37 25.6
2020-Jul-10 16:46 108 24 gusting 37 25.6
2020-Jul-10 16:41 110 29 gusting 35 25.6
2020-Jul-10 16:36 114 26 gusting 36 25.6
2020-Jul-10 16:31 112 24 gusting 39 25.6
2020-Jul-10 16:26 109 29 gusting 39 25.6
2020-Jul-10 16:21 112 24 gusting 37 25.6
2020-Jul-10 16:16 107 26 gusting 37 25.6
2020-Jul-10 16:11 110 26 gusting 36 25.0
2020-Jul-10 16:06 101 24 gusting 33 25.0
2020-Jul-10 16:01 100 23 gusting 37 25.0
2020-Jul-10 15:56 100 24 gusting 37 25.0
2020-Jul-10 15:51 101 24 gusting 37 25.0
2020-Jul-10 15:46 097 22 gusting 37 25.0
2020-Jul-10 15:41 092 24 gusting 37 25.0
2020-Jul-10 15:36 095 25 gusting 37 24.4
2020-Jul-10 15:31 080 23 gusting 36 24.4
2020-Jul-10 15:26 089 26 gusting 36 24.4
2020-Jul-10 15:21 086 28 gusting 36 24.4
2020-Jul-10 15:16 073 20 gusting 29 24.4
2020-Jul-10 15:11 064 20 gusting 28 23.9
2020-Jul-10 15:06 059 16 gusting 28 23.9
2020-Jul-10 15:01 059 17 gusting 28 23.9
2020-Jul-10 14:56 065 19 gusting 28 23.9
2020-Jul-10 14:51 062 19 gusting 29 23.9
2020-Jul-10 14:46 064 18 gusting 32 23.9
2020-Jul-10 14:41 068 22 gusting 33 23.3
2020-Jul-10 14:36 059 20 gusting 33 23.3
2020-Jul-10 14:31 075 19 gusting 32 23.3
2020-Jul-10 14:26 060 20 gusting 31 23.3
2020-Jul-10 14:21 055 20 gusting 31 23.3
2020-Jul-10 14:16 057 18 gusting 31 23.3
2020-Jul-10 14:11 061 16 gusting 29 23.3
2020-Jul-10 14:06 066 20 gusting 29 22.8
2020-Jul-10 14:01 056 19 gusting 31 23.3
2020-Jul-10 13:56 060 19 gusting 33 23.3
2020-Jul-10 13:51 065 24 gusting 33 23.3
2020-Jul-10 13:46 068 19 gusting 33 23.3
2020-Jul-10 13:41 054 24 gusting 33 23.3
2020-Jul-10 13:36 054 20 gusting 33 22.8
2020-Jul-10 13:31 063 25 gusting 34 22.8
2020-Jul-10 13:26 075 22 gusting 34 23.3
2020-Jul-10 13:21 065 19 gusting 30 23.3
2020-Jul-10 13:16 063 19 gusting 30 23.3
2020-Jul-10 13:11 068 16 gusting 29 23.3
2020-Jul-10 13:06 066 17 gusting 29 23.3
2020-Jul-10 13:01 071 21 gusting 31 23.3
2020-Jul-10 12:56 073 20 gusting 32 23.9
2020-Jul-10 12:51 077 22 gusting 32 23.9
2020-Jul-10 12:46 055 16 gusting 24 24.4
2020-Jul-10 12:41 059 13 gusting 21 24.4
2020-Jul-10 12:36 060 14 gusting 23 24.4
2020-Jul-10 12:31 060 13 gusting 24 24.4
2020-Jul-10 12:26 067 17 gusting 26 24.4
2020-Jul-10 12:21 062 17 gusting 26 24.4
2020-Jul-10 12:16 062 15 gusting 26 24.4
2020-Jul-10 12:11 067 14 gusting 26 24.4
2020-Jul-10 12:06 070 16 gusting 25 24.4
2020-Jul-10 12:01 073 14 gusting 25 24.4